Home > Weather > Bardufoss > Past weeks

Flag for Norway Past Weather in Bardufoss, Norway — Yesterday and Last 2 Weeks

Now
57 °F

Scattered clouds.


Feels Like: 57 °F
Forecast: 59 / 76 °F
Wind: 1 mph from North

Location: Bardufoss

Current Time: Jul 2, 2016 at 12:41:28 AM

Latest Report: Jul 1, 2016 at 11:50 PM


Visibility: N/A

Pressure: 29.68 "Hg

Humidity: 88%

Dew Point: 54 °F

Location of BardufossLocation

Past Weather in Bardufoss — Graph

°F

Bardufoss Temperature Yesterday

Maximum temperature yesterday: 72 °F (at 10:20 AM)
Minimum temperature yesterday: 55 °F (at 1:20 AM)
Average temperature yesterday: 66 °F

High & Low Weather Summary for the Past Weeks

 TemperatureHumidityPressure
High77 °F (Jun 27, 11:50 AM)100% (Jun 18, 4:50 AM)30.12 "Hg (Jun 18, 4:50 AM)
Low43 °F (Jun 19, 1:50 AM)34% (Jun 27, 1:20 PM)29.65 "Hg (Jun 27, 7:50 PM)
Average55 °F77%29.87 "Hg
* Reported Jun 16 10:50 PM — Jul 1 10:50 PM, Bardufoss, Weather by CustomWeather, © 2016

Note: Actual official high and low records may vary slightly from our data, if they occured in-between our weather recording intervals... More about our weather records

Advertising

Bardufoss Weather History for the Previous 24 Hours

Scroll right to see more
 ConditionsComfort  
Time TempWeatherWind HumidityBarometerVisibility
10:50 PM
Fri, Jul 1
61 °FBroken clouds.2 mph72%29.68 "HgN/A
9:50 PM63 °FPartly sunny.2 mph68%29.71 "HgN/A
8:50 PM64 °FPartly sunny.6 mph68%29.71 "HgN/A
7:50 PM66 °FScattered clouds.7 mph64%29.71 "HgN/A
6:50 PM66 °FSprinkles. Broken clouds.3 mph64%29.71 "HgN/A
6:20 PM68 °FScattered showers. Broken clouds.9 mph60%29.71 "HgN/A
5:50 PM70 °FBroken clouds.6 mph57%29.71 "HgN/A
5:20 PM70 °FBroken clouds.5 mph53%29.71 "HgN/A
4:50 PM70 °FBroken clouds.6 mph53%29.71 "HgN/A
4:20 PM70 °FBroken clouds.7 mph53%29.71 "HgN/A
3:50 PM68 °FBroken clouds.6 mph56%29.71 "HgN/A
3:20 PM68 °FBroken clouds.6 mph56%29.71 "HgN/A
2:50 PM68 °FBroken clouds.7 mph56%29.71 "HgN/A
2:20 PM66 °FBroken clouds.8 mph56%29.71 "HgN/A
1:50 PM68 °FBroken clouds.6 mph53%29.71 "HgN/A
1:20 PM70 °FBroken clouds.3 mph53%29.71 "HgN/A
12:50 PM70 °FBroken clouds.6 mph46%29.71 "HgN/A
12:20 PM70 °FPartly sunny.3 mph50%29.71 "HgN/A
11:50 AM70 °FPartly sunny.3 mph50%29.71 "HgN/A
11:20 AM70 °FPartly sunny.3 mph50%29.71 "HgN/A
10:50 AM70 °FPartly sunny.3 mph50%29.71 "HgN/A
10:20 AM72 °FBroken clouds.1 mph47%29.68 "HgN/A
9:50 AM70 °FBroken clouds.2 mph50%29.68 "HgN/A
9:20 AM70 °FBroken clouds.3 mph46%29.68 "HgN/A
8:50 AM68 °FPartly sunny.2 mph53%29.68 "HgN/A
8:20 AM70 °FBroken clouds.3 mph46%29.68 "HgN/A
7:50 AM70 °FBroken clouds.6 mph50%29.68 "HgN/A
7:20 AM66 °FBroken clouds.7 mph60%29.68 "HgN/A
6:50 AM68 °FPartly sunny.5 mph53%29.68 "HgN/A
6:20 AM66 °FPartly sunny.5 mph56%29.68 "HgN/A
5:50 AM64 °FPartly sunny.7 mph56%29.68 "HgN/A
5:20 AM64 °FPartly sunny.6 mph56%29.68 "HgN/A
4:50 AM64 °FOvercast.6 mph56%29.68 "HgN/A
4:20 AM61 °FPartly sunny.3 mph63%29.68 "HgN/A
3:50 AM63 °FPartly sunny.7 mph59%29.68 "HgN/A
3:20 AM61 °FPassing clouds.6 mph59%29.71 "HgN/A
2:50 AM59 °FPartly sunny.8 mph63%29.71 "HgN/A
2:20 AM61 °FOvercast.7 mph63%29.71 "HgN/A
1:50 AM55 °FScattered clouds.2 mph88%29.71 "HgN/A
1:20 AM55 °FOvercast.3 mph88%29.71 "HgN/A
12:50 AM57 °FPassing clouds.3 mph77%29.71 "HgN/A
12:20 AM59 °FPartly sunny.No wind77%29.71 "HgN/A
Weather by CustomWeather, © 2016

See weather overviewHow to use our weather pages